"Pseudo-MPEC" for A10ecQZ

Created 2019 Jun 15 19:07:13 UT using Find_Orb

Click here for an explanation of pseudo-MPECs

 
 Astrometry: 
     A10ecQZ  C2019 05 31.47063418 21 06.06 -08 59 10.5    ~6B8M 19.22cVNEOCPT05
     A10ecQZ  C2019 05 31.47346018 21 05.98 -08 59 10.6    ~6B8M 18.53cVNEOCPT05
     A10ecQZ  C2019 05 31.48020018 21 05.77 -08 59 10.8    ~6B8M 19.00cVNEOCPT05
     A10ecQZ  C2019 05 31.49306718 21 05.50 -08 59 09.2    ~6B8M 18.98cVNEOCPT05
     A10ecQZ  C2019 06 10.41302718 16 31.32 -08 48 47.9    ~6AD7 18.44oVNEOCPT08
     A10ecQZ  C2019 06 10.41581418 16 31.25 -08 48 48.0    ~6AD7 18.18oVNEOCPT08
     A10ecQZ  C2019 06 10.42264018 16 31.03 -08 48 47.5    ~6AD7 18.52oVNEOCPT08
     A10ecQZ  C2019 06 10.43265818 16 30.73 -08 48 47.6    ~6AD7 18.55oVNEOCPT08
     A10ecQZ KC2019 06 10XCZZ5nonOeEkrB6]eA;e/a:\:-E-(QeK1y;Zn//4.`QTvh@)_MjyK88
     A10ecQZ KC2019 06 10c+`blh:1Astrometry:%0U_XHFM#,XW]FQU)j\tiEYP-%!62[A@2K88
     A10ecQZ KC2019 06 10`CYgeEWEcWNS9w8[M`E!P26PSWcmTvZT;YeX(u-\i/Y'k`'+_]\qK88
     A10ecQZ KC2019 06 10sf%*Or8%-lA@29y:h,vWo/9:I@FcW(4+H9ixf(WsNx9`k8UZxQ7nK88
     A10ecQZ KC2019 06 10;P.KT'\6pg_/17OmHHu!6l.kLavUkH=0sLk0aQUKbl/o#+p?Ab'2K88
     A10ecQZ KC2019 06 10ih.-wU;d)g/9]qD9v-_vTy!JrBgT.0vq=tKLi5/0DmoG,k.lB$u%K88
     A10ecQZ HC2019 06 11nl1x(srSy;BcKf??6f%[NK#SLyYQG[wIFS!NLN[%i#B;Db4ZNm;#691
     A10ecQZ HC2019 06 11?s0Erivs$MBKwS,K51;8.06pxpxkfUd_e/W._P32L^8IkDO0jsrT691
     A10ecQZ HC2019 06 11/hRZfCFBb+aqpWF)CLA\O2Z$mDHfO^T/KRUG::.e0$v0-@\(f;6j691
     A10ecQZ KC2019 06 11b59NQoW6$g;VvbJkJi!Of2redacted;6,H?b44R%vgr$sA[/E$UyE23
     A10ecQZ KC2019 06 11fYD6IE?i1VuZO7nciM91y=*ARmfUqB.]!RM$Qmmc#BwRYko#s.hLE23
     A10ecQZ KC2019 06 11%rm1e4@\0(seZjfG]OJZLV9qKpD3^ql0$u,x1'*\;+clickL'Rc0E23
     A10ecQZ KC2019 06 11WC637b9a`WM0P+,6)=Sd5-;a9$rpb^mJQT11TB^eLiKcMBp7D+q+L01
     A10ecQZ KC2019 06 11YyXQIZ9-M8\)J6KbUx,ZaY#WJ!Bap!`N,/cyq6q/L3=LvL$\-?odL01
     A10ecQZ KC2019 06 11P??F;@jP-VGxM0JNDgTt:2V!QK?[D^'`?wV_Ahere3iOi6M!wDy?L01
     A10ecQZ KC2019 06 11xs30)4;.SvRkWl0.IJP69Y%*,u+for]@*rWi]:#x0OTV`!@I$jy:L01
     A10ecQZ |C2019 06 12^X?hnM!41XahGD\%v^i%lE@mfiK0heH^6ScsAtQ(SLRX#6!()GHPH06
     A10ecQZ |C2019 06 12g7QYA3jQ3.%T\07yc=Qu@BQI%xKU?=1JP-$dgoo#t._+y8H=Dx]fH06
     A10ecQZ KC2019 06 13O`k'f]fJ3sOw`xm:UAH:-O?Q'VqVq7]7@\;SUD+oBR/Qs2F4S)S^N55
     A10ecQZ KC2019 06 13dc/tZK1=A7$=E3P)8(8jU$6/8C8E'/6vC;a;\cR:[wNwM15/#%e(N55
     A10ecQZ KC2019 06 13;tt8g@?C)/tL$[gaytUZq]WynlbrLMTANZCHSfQ=`XAvy\Os8/EON55
     A10ecQZ KC2019 06 13@DDf`p84$4jRn3!!y,:d`jdB?74(\dHZbhAX[/6oyh=fCeP]Ynw#595
     A10ecQZ KC2019 06 13X?BJT$,rAZolPK(y$Jjn4/DqC8nFKhCuvG[nNVNCr@MCLGLBk@V!595
     A10ecQZ KC2019 06 13(D1Pj6r3en5Fc#j`udgsf9t95f3EAR'?=XcS*Qyf;)A`iqJVDkI^A17
     A10ecQZ KC2019 06 138^q]Y#extwM'mEZYdPb_6+0:aT_dMC1o9EL$CGU9N7,tKe^!'wk2A17
     A10ecQZ KC2019 06 13.,MbE75im!8-deweu7:2C4]cL9DI*WWj^t6PcYCKP5pUkSo#v]:_A17
     A10ecQZ KC2019 06 14/-*2l;D\SL)[_'01'ZUr3JOd-D#pQ-\wZVx`9ZF@Z0,R03ge`i5v850
     A10ecQZ KC2019 06 143BF?)),cPbk/v7*0!6b2IOQc*ASHqfD_N!4d,Pw9VhC@jY]V]f-F850
     A10ecQZ KC2019 06 14pNSsF@qdYE?[Y]Bc?#t.F;explanationRZx.q;q5jKb6EYT$Ys:850
     A10ecQZ KC2019 06 148V\VN!YIcY;mpI4e6#U;?E`Syd2LX$\:Z1m4%',uNVDmj/]HxA=^850
     A10ecQZ KC2019 06 14t,B[e%uy6km$KN0FfDI0.,2L*TjBN`E5]ZbUSR!FVLN@L+`pTJ$;H21
     A10ecQZ KC2019 06 14]+E7OheigTLG.4Vb@1bP77pcv04*[lEwE/LgNpT)BU71eSQw(4-R850
     A10ecQZ KC2019 06 14R)=f3xXY0XK6Ey,y\O.N:s'kpCM_PZ7YwWGu5ZkE8p\]IB6,KD4eH21
     A10ecQZ KC2019 06 14q;1h_8'ir#IuJxd*CdB9Y=Bo#nm73dRD,k73[c+^3.1El//h/G?QH21
     A10ecQZ KC2019 06 14Byc3gMf141GlfS*y3ldX^sgLvvso(il[R%HZE4nW6o#H.U6tn9G\850
     A10ecQZ KC2019 06 14ew29mn\9*i,ItqOef,gi:w%oqM./MvfcDI(8t5;8c2ANRNpABm7N850
     A10ecQZ  C2019 06 14.32564 18 14 32.79 -08 46 22.5    ~6E8q       VNEOCPI52
     A10ecQZ  C2019 06 14.33596 18 14 32.51 -08 46 21.5    ~6E8q 18.0 GVNEOCPI52
     A10ecQZ  C2019 06 14.34856 18 14 32.11 -08 46 20.9    ~6E8q 17.9 GVNEOCPI52
     A10ecQZ KC2019 06 14y67MRgmofqn.l]#^GiZuv.k=P^rhVFgm7ny%bokX@9AfwDKDh+sdN55
     A10ecQZ KC2019 06 14me[C#Se4S-'E!Jcuovb=(_;-])lWG_v)]S6HgD/ni1OmN$$@$A#dN55
     A10ecQZ KC2019 06 14]d!@12hJbK-a0]+s,N^[A3_]7Zb37JU'jfn2kV]RLyb0^\p3@+T-N55
     A10ecQZ -C2019 06 15DlyXTfI46%oZEcG6t^iF]+0BAUec#dUVBcBlw2KGmp0:a*RP+65;G40
     A10ecQZ -C2019 06 15XWvgM;PP%,-HIOnGb?n/iX#P=UZHkp=#'mDT/u*4[76*A*+]#SlmG40

Station data:
(595) Farra d'Isonzo  (N45.915734 E13.525780)  Italy.  Observers L.
   Bittesini, F. Fabris, E. Pettarin, F. Piani. Measurer E. Pettarin. 0.30-m
   f/4.5 reflector + CCD.
(691) Steward Observatory, Kitt Peak - Spacewatch  (N31.962174 W111.600327)
   US/Arizona.  Observer J. V. Scotti. 0.9-m f/3 reflector + CCD.
(850) Cordell-Lorenz Observatory, Sewanee  (N35.204094 W85.919800)
   US/Tennessee. 0.3-m Schmidt-Cassegrain.
(A17) Guidestar Observatory, Weinheim  (N49.545393 E8.681520)  Germany.
(E23) Arcadia  (S33.621199 E151.071190)  Australia/NSW.
(G40) Slooh.com Canary Islands Observatory  (N28.299720 W16.508260)  Canary
   Islands (Spain).  Observers G. Gašparović, Y. Chen. 0.43-m f/6.8 Corrected
   Dall-Kirkham + CCD.
(H06) RAS Observatory, Mayhill  (N32.903325 W105.528700)  US/New
   Mexico.  Observers E. Guido, G. Sostero, V. Gonano, L. Donato.
(H21) Astronomical Research Observatory, Westfield  (N39.483057 W87.968270)
   US/Illinois. 0.76-m f/3.0 astrograph + CCD.
(I52) Steward Observatory, Mt. Lemmon Station  (N32.442547 W110.788920)
   US/Arizona.  Observers T. A. Pruyne, B. M. Africano, E. J. Christensen, G.
   A. Farneth, D. C. Fuls, A. R. Gibbs, A. D. Grauer, H. Groeller, J. A.
   Johnson, R. A. Kowalski, S. M. Larson, G. J. Leonard, R. L. Seaman, F. C.
   Shelly. 1.0-m reflector + CCD.
(K88) GINOP-KHK, Piszkéstető  (N47.917622 E19.893600)  Hungary.  Observer K.
   Sárneczky. 0.60-m Schmidt + CCD.
(L01) Višnjan Observatory, Tičan  (N45.290900 E13.749300)  Croatia.
   Observers K. Korlević, E. Pettarin. Measurer E. Pettarin. 1.0-m f/2.9
   reflector + CCD.
(N55) Corona Borealis Observatory, Ngari  (N32.326059 E80.026230)  China.
(T05) ATLAS-HKO, Haleakala  (N20.707573 W156.257010)  US/Hawaii.  Observers
   L. Denneau, A. Heinze, H. Weiland, J. Tonry, H. Flewelling, A.
   Fitzsimmons, D. Young, B. Stalder. Measurers L. Denneau, A. Heinze, J.
   Tonry. 0.5-m f/2.0 Schmidt + CCD.
(T08) ATLAS-MLO, Mauna Loa  (N19.535772 W155.576400)  US/Hawaii.  Observers
   L. Denneau, A. Heinze, H. Weiland, J. Tonry, H. Flewelling, A.
   Fitzsimmons, D. Young, B. Stalder. Measurers L. Denneau, A. Heinze, J.
   Tonry. 0.5-m f/2.0 Schmidt + CCD.

Orbital elements:  A10ecQZ
   Perihelion 2020 Mar 19.647527 +/- 30.3 TT = 15:32:26 (JD 2458928.147527)
Epoch 2019 Jun 15.0 TT = JDT 2458649.5   Ju: 0.0021           AutoNEOCP
M 337.70694235 +/- 2.4              (J2000 ecliptic)
n   0.08000450 +/- 0.000151         Peri.  120.42458 +/- 3.3
a   5.33408278 +/- 0.0067           Node   180.40443 +/- 0.07
e   0.1393703 +/- 0.00235           Incl.   11.51675 +/- 0.0051
P  12.32                   H 12.5   G  0.15   U  7.2  
q 4.59066966 +/- 0.0125    Q 6.07749589 +/- 0.0163
From 52 observations 2019 May 31-June 15; mean residual 0".38
Residuals in arcseconds: 
190531 T05  .06+  .47+    190611 E23  .35-  .78-    190614 850  .01+  .31-    
190531 T05  .03-  .15+    190611 E23  .15-  .23-    190614 850  .04+  .12-    
190531 T05  .53-  .59-    190611 L01  .20+  .24+    190614 H21  .22+  .38+    
190531 T05  .46+  .02-    190611 L01  .22-  .24+    190614 850  .28+  .46+    
190610 T08  .04-  .21-    190611 L01  .40-  .15+    190614 H21  .21+  .28+    
190610 T08  .18+  .43-    190611 L01  .34-  .29+    190614 H21  .06+  .38+    
190610 T08  .01+  .23-    190612 H06  .22+  .04-    190614 850  .05-  .06-    
190610 T08  .11+  .77-    190612 H06  .04-  .17-    190614 850  .01-  .26-    
190610 K88  .55+  .67+    190613 N55  .76+  .48+    190614 I52  .67-  .50-    
190610 K88  .54+  .33+    190613 N55  .21+  .46+    190614 I52  .03+  .20+    
190610 K88  .08+  .39+    190613 N55  .60+  .27-    190614 I52  .01+  .42+    
190610 K88  .06+  .34+    190613 595  .80-  .35-    190614 N55  .84-  .63+    
190610 K88  .05+  .50+    190613 595  .36+  .07-    190614 N55  .32-  .29+    
190610 K88  .04+  .47+    190613 A17  .16-  .06+    190614 N55  .08+  .40+    
190611 691  .16+  .17+    190613 A17  .80-  .22+    190615 G40  .60+  .39-    
190611 691  .28+  .12+    190613 A17  .10-  .52-    190615 G40  .34+  .38-    
190611 691  .35-  .08+    190614 850  .05+  1.0-    
190611 E23  .39-  .24-    190614 850  .23+  .63-    

Ephemerides (geocentric):
Date (UTC) HH   RA              Dec         delta   r     elong  mag " sig PA
---- -- -- --  -------------   -----------  ------ ------ -----  --- ---- ---
2019 06 15 19  18 13 47.397   -08 45 40.56  3.6847 4.6642 162.7 19.0 .146   3
2019 06 15 20  18 13 46.098   -08 45 39.54  3.6846 4.6642 162.7 19.0 .149   3
2019 06 15 21  18 13 44.800   -08 45 38.54  3.6844 4.6641 162.7 19.0 .152   3
2019 06 15 22  18 13 43.501   -08 45 37.54  3.6843 4.6641 162.7 19.0 .155   3
2019 06 15 23  18 13 42.202   -08 45 36.54  3.6842 4.6641 162.8 19.0 .158   3
2019 06 16 00  18 13 40.902   -08 45 35.56  3.6841 4.6641 162.8 19.0 .161   3
2019 06 16 01  18 13 39.602   -08 45 34.58  3.6840 4.6640 162.8 19.0 .164   3
2019 06 16 02  18 13 38.301   -08 45 33.60  3.6838 4.6640 162.8 19.0 .167   3
2019 06 16 03  18 13 37.001   -08 45 32.64  3.6837 4.6640 162.9 19.0 .170   3
2019 06 16 04  18 13 35.699   -08 45 31.68  3.6836 4.6640 162.9 19.0 .173   2
2019 06 16 05  18 13 34.398   -08 45 30.72  3.6835 4.6640 162.9 19.0 .176   2
2019 06 16 06  18 13 33.096   -08 45 29.77  3.6834 4.6639 162.9 19.0 .179   2
2019 06 16 07  18 13 31.794   -08 45 28.83  3.6832 4.6639 162.9 19.0 .182   2
2019 06 16 08  18 13 30.491   -08 45 27.90  3.6831 4.6639 163.0 19.0 .185   2
2019 06 16 09  18 13 29.189   -08 45 26.97  3.6830 4.6639 163.0 19.0 .188   2
2019 06 16 10  18 13 27.885   -08 45 26.05  3.6829 4.6639 163.0 19.0 .192   2
